Regional Weather Roundup
Issued by NWS Sioux Falls, SD

Home | Current Version | Previous Version | Graphics & Text | Print | Product List | Glossary Off
Versions: 1 2 3 4 5 6 7 8 9 10 11 12 13 14 15 16 17 18 19 20 21 22 23 24 25 26 27 28 29 30 31 32 33 34 35 36 37 38 39 40 41 42 43 44 45 46 47 48 49 50

000
ASUS43 KFSD 260410
RWRFSD

WEATHER ROUNDUP FOR SE SOUTH DAKOTA/SW MINNESOTA/NW IOWA
NATIONAL WEATHER SERVICE SIOUX FALLS SD
1100 PM CDT WED MAY 25 2016

NOTE: "FAIR" INDICATES FEW OR NO CLOUDS BELOW 12,000 FEET WITH NO
SIGNIFICANT WEATHER AND OR OBSTRUCTIONS TO VISIBILITY.


SDZ038>040-050-052>070-260500-
SOUTHEAST SOUTH DAKOTA

CITY           SKY/WX    TMP DP  RH WIND       PRES   REMARKS
BROOKINGS      CLOUDY    62  53  72 E8        29.80F
CHAMBERLAIN    CLEAR     61  58  90 CALM      29.85R
HURON          CLOUDY    58  55  90 W6        29.80R
MADISON        FAIR      63  59  88 E3        29.82F
MITCHELL       CLOUDY    64  60  87 NE5       29.81R
SIOUX FALLS    TSTM      61  55  81 E10       29.79F
WINNER         FAIR      62  53  72 CALM      29.87R
YANKTON        CLOUDY    61  55  82 S9        29.80R
$$

MNZ071-072-080-081-089-090-097-098-260500-
SOUTHWEST MINNESOTA

CITY           SKY/WX    TMP DP  RH WIND       PRES   REMARKS
FAIRMONT       PTCLDY    68  57  68 CALM      29.82R THUNDER
JACKSON        CLOUDY    68  59  73 CALM      29.84R
LUVERNE        CLOUDY    68  59  73 NW25G39   29.85R
MARSHALL       CLOUDY    66  50  56 NW17      29.84R
MONTEVIDEO     CLOUDY    70  46  43 NW18G30   29.84S
PIPESTONE      RAIN      66  54  63 N13G21    29.89R
REDWOOD FALLS  CLEAR     70  59  68 W6        29.82R
TRACY          CLOUDY    69  62  78 W5        29.84R
WINDOM         CLOUDY    66  61  82 CALM      29.83S
WORTHINGTON    PTCLDY    69  63  81 CALM      29.84R
$$

IAZ001>003-012>014-020>022-031-032-NEZ013-014-SDZ071-260500-
NORTHWEST IOWA

CITY           SKY/WX    TMP DP  RH WIND       PRES   REMARKS
CHEROKEE       PTCLDY    68  65  89 S6        29.84R
DENISON        CLOUDY    70  66  88 S5        29.83R
ESTHERVILLE    CLOUDY    67  60  78 CALM      29.83F
LE MARS        CLOUDY    72  66  83 S7        29.83R
ORANGE CITY    CLOUDY    72  64  78 S3        29.82F
SHELDON        MOCLDY    70  64  83 S6        29.81F
SIOUX CITY     CLOUDY    72  66  81 S8        29.81R
SPENCER        CLOUDY    69  61  75 S6        29.83R
STORM LAKE     CLEAR     68  63  83 S8        29.85R
$$

ABBREVIATIONS USED IN REMARKS
   TC - TEMPERATURE IN CELSIUS
  WCI - WIND CHILL INDEX
   HX - HEAT INDEX
  VSB - VISIBILITY




USA.gov is the U.S. government's official web portal to all federal, state and local government web resources and services.